Saint Simons Island, GA

7:40 PM EST on December 05, 2019 (GMT -0500)
McKinnon

Weather History for KSSI - November, 2019

Change the Weather History Date:

Thursday, November 21, 2019

  Actual Average Record
Temperature  
Mean Temperature 57 °F 60 °F  
Max Temperature 68 °F 69 °F 80 °F (1973)
Min Temperature 46 °F 52 °F 29 °F (1968)
Degree Days  
Heating Degree Days 8 6  
Month to date heating degree days 135 87  
Since 1 July heating degree days 135 117  
Cooling Degree Days 0 1  
Month to date cooling degree days 25 44  
Year to date cooling degree days 3370 2605  
Growing Degree Days 6 (Base 50)    
Moisture  
Dew Point 49 °F    
Average Humidity 75    
Maximum Humidity 93    
Minimum Humidity 56    
Precipitation  
Precipitation 0.00 in 0.06 in 2.10 in (1992)
Month to date precipitation 3.51 1.47  
Year to date precipitation 35.97 41.80  
Snow  
Snow 0.00 in - 0.00 in ()
Month to date snowfall 0.0  
Since 1 July snowfall 0.0  
Since 1 September snowfall 0.0  
Snow Depth 0.00 in    
Sea Level Pressure  
Sea Level Pressure 30.24 in    
Wind  
Wind Speed 5 mph (NNE)    
Max Wind Speed 14 mph    
Max Gust Speed 17 mph    
Visibility 10 miles    
Events      
T = Trace of Precipitation, MM = Missing Value Source: NWS Daily Summary

Daily Weather History Graph

Daily Weather History Graph

Search for Another Location

Airport or City:

Astronomy

Nov. 21, 2019 Rise Set
Actual Time 6:57 AM EST 5:24 PM EST
Civil Twilight 6:31 AM EST 5:50 PM EST
Nautical Twilight 6:02 AM EST 6:20 PM EST
Astronomical Twilight 5:33 AM EST 6:49 PM EST
Moon 1:21 AM EST (11/21) 2:26 PM EST (11/21)
Length of Visible Light 11h 19m
Length of Day
10h 27m
Waning Crescent, 30% of the Moon is Illuminated
Nov 21
Waning Crescent
Nov 26
New
Dec 4
First Quarter
Dec 12
Full
Dec 18
Last Quarter

Hourly Weather History & Observations

Time (EST) Temp. Dew Point Humidity Pressure Visibility Wind Dir Wind Speed Gust Speed Precip Events Conditions
12:53 AM 48.0 °F 44.1 °F 86% 30.23 in 10.0 mi Calm Calm - N/A   Clear
1:53 AM 46.9 °F 44.1 °F 90% 30.23 in 10.0 mi Calm Calm - N/A   Clear
2:53 AM 46.0 °F 42.1 °F 86% 30.24 in 10.0 mi Calm Calm - N/A   Clear
3:53 AM 48.0 °F 44.1 °F 86% 30.24 in 10.0 mi NNW 3.5 mph - N/A   Clear
4:53 AM 46.0 °F 43.0 °F 89% 30.24 in 10.0 mi Calm Calm - N/A   Clear
5:53 AM 46.9 °F 44.1 °F 90% 30.25 in 10.0 mi North 3.5 mph - N/A   Clear
6:53 AM 46.9 °F 44.1 °F 90% 30.27 in 10.0 mi NNW 4.6 mph - N/A   Clear
7:53 AM 52.0 °F 48.0 °F 86% 30.28 in 10.0 mi North 6.9 mph - N/A   Clear
8:53 AM 60.1 °F 50.0 °F 69% 30.29 in 10.0 mi NNE 6.9 mph - N/A   Clear
9:53 AM 64.0 °F 50.0 °F 60% 30.30 in 10.0 mi NNE 9.2 mph - N/A   Clear
10:53 AM 64.9 °F 48.9 °F 56% 30.30 in 10.0 mi NE 10.4 mph - N/A   Clear
11:53 AM 64.9 °F 50.0 °F 58% 30.28 in 10.0 mi NNE 11.5 mph - N/A   Clear
12:53 PM 66.9 °F 51.1 °F 57% 30.25 in 10.0 mi ENE 9.2 mph - N/A   Clear
1:53 PM 66.9 °F 51.1 °F 57% 30.23 in 10.0 mi NE 10.4 mph - N/A   Clear
2:53 PM 66.0 °F 52.0 °F 60% 30.23 in 10.0 mi ENE 9.2 mph - N/A   Clear
3:53 PM 64.0 °F 52.0 °F 65% 30.22 in 10.0 mi NNE 8.1 mph - N/A   Clear
5:53 PM 59.0 °F 52.0 °F 78% 30.23 in 10.0 mi NE 6.9 mph - N/A   Clear
6:53 PM 59.0 °F 52.0 °F 78% 30.22 in 10.0 mi NE 6.9 mph - N/A   Clear
7:53 PM 57.9 °F 53.1 °F 84% 30.22 in 10.0 mi NE 4.6 mph - N/A   Clear
8:53 PM 57.0 °F 52.0 °F 83% 30.23 in 10.0 mi North 3.5 mph - N/A   Clear
9:53 PM 55.9 °F 52.0 °F 87% 30.22 in 10.0 mi Calm Calm - N/A   Clear
10:53 PM 55.9 °F 52.0 °F 87% 30.20 in 10.0 mi Calm Calm - N/A   Clear
11:53 PM 55.9 °F 53.1 °F 90% 30.17 in 10.0 mi Calm Calm - N/A   Clear